Location: Kernascl�den
(48.0062°N, 3.3198°W)
Time: 22:59:13
(UTC+00:00)

Cosmos 1844 Rocket - Pass Details

Date: 21 January 2021
Orbit: 826 x 843 km, 71.0° (Epoch: 04 March)

Event Time Altitude Azimuth Distance (km) Brightness Sun altitude
Rises 17:50:16 0° 177° (S) 3,387 6.1 -9.0°
Reaches altitude 10° 17:52:54 10° 168° (SSE) 2,456 5.2 -9.4°
Maximum altitude 17:57:53 33° 105° (ESE) 1,379 3.4 -10.2°
Enters shadow 18:02:51 10° 44° (NE) 2,455 4.6 -11.0°
